{"data":{"norad_id":67341,"epoch":"2026-09-19T13:18:41.410944Z","epoch_age_seconds":156999,"freshness":"FRESH","line1":"1 67341U 26003H   26262.55464596  .00011462  00000+0  42504-3 0  9995","line2":"2 67341  43.0019 212.1660 0001740 270.5459  89.5193 15.27607865 38476","mean_motion":15.27607865,"eccentricity":0.000174,"inclination_deg":43.0019,"raan_deg":212.166,"arg_perigee_deg":270.5459,"mean_anomaly_deg":89.5193,"bstar":0.00042504,"rev_number":3847,"period_min":94.265029199755,"perigee_km":481.77182761085,"apogee_km":484.15949133634,"semimajor_km":6861.1026594736,"source":"CELESTRAK","updated_at":"2026-09-20T09:00:43.512290Z"}}